owner,sensor,date,latitude,longitude,vertical_datum,direction_of_sea_water_velocity,sea_water_speed,upward_sea_water_velocity,qcFlag 
TABS,ioos:station:wmo:42046:1,2011-04-01T00:00:00Z,27.8903,-94.0367,2.0,205.0959813,8.723531395,-99999.0,'11133222,11111222,99999999' 
TABS,ioos:station:wmo:42046:1,2011-04-01T00:30:00Z,27.8903,-94.0367,2.0,216.7787277,5.044006344,-99999.0,'11133222,11111222,99999999' 
TABS,ioos:station:wmo:42046:1,2011-04-01T01:00:00Z,27.8903,-94.0367,2.0,218.5745411,3.159398677,-99999.0,'11133222,11111222,99999999' 
TABS,ioos:station:wmo:42046:1,2011-04-01T01:30:00Z,27.8903,-94.0367,2.0,259.9627001,2.295125269,-99999.0,'11133222,11111222,99999999' 
TABS,ioos:station:wmo:42046:1,2011-04-01T02:00:00Z,27.8903,-94.0367,2.0,287.4331727,2.16965435,-99999.0,'11133222,11111222,99999999' 
TABS,ioos:station:wmo:42046:1,2011-04-01T02:30:00Z,27.8903,-94.0367,2.0,356.1691681,4.490033407,-99999.0,'11133222,11111222,99999999' 
TABS,ioos:station:wmo:42046:1,2011-04-01T03:00:00Z,27.8903,-94.0367,2.0,358.9844367,8.461329683,-99999.0,'11133222,11111222,99999999' 
TABS,ioos:station:wmo:42046:1,2011-04-01T03:30:00Z,27.8903,-94.0367,2.0,355.8633893,9.564920282,-99999.0,'11133222,11111222,99999999' 
TABS,ioos:station:wmo:42046:1,2011-04-01T04:00:00Z,27.8903,-94.0367,2.0,356.2776987,15.40249655,-99999.0,'11111222,11111222,99999999' 
TABS,ioos:station:wmo:42046:1,2011-04-01T04:30:00Z,27.8903,-94.0367,2.0,359.0532612,20.57280973,-99999.0,'11111222,11144222,99999999' 
TABS,ioos:station:wmo:42046:1,2011-04-01T05:00:00Z,27.8903,-94.0367,2.0,10.21866555,22.54764067,-99999.0,'11111222,11111222,99999999' 
TABS,ioos:station:wmo:42046:1,2011-04-01T05:30:00Z,27.8903,-94.0367,2.0,12.63204427,19.29708009,-99999.0,'11111222,11111222,99999999' 
TABS,ioos:station:wmo:42046:1,2011-04-01T06:00:00Z,27.8903,-94.0367,2.0,23.11909734,21.72467031,-99999.0,'11111222,11111222,99999999' 
TABS,ioos:station:wmo:42046:1,2011-04-01T06:30:00Z,27.8903,-94.0367,2.0,23.31557979,23.82560178,-99999.0,'11111222,11111222,99999999' 
TABS,ioos:station:wmo:42046:1,2011-04-01T07:00:00Z,27.8903,-94.0367,2.0,33.37528732,25.23091952,-99999.0,'11111222,11111222,99999999' 
TABS,ioos:station:wmo:42046:1,2011-04-01T07:30:00Z,27.8903,-94.0367,2.0,40.09489384,22.57575026,-99999.0,'11111222,11111222,99999999' 
TABS,ioos:station:wmo:42046:1,2011-04-01T08:00:00Z,27.8903,-94.0367,2.0,47.93667741,22.91206233,-99999.0,'11111222,11111222,99999999' 
TABS,ioos:station:wmo:42046:1,2011-04-01T08:30:00Z,27.8903,-94.0367,2.0,45.48807397,24.07785912,-99999.0,'11111222,11111222,99999999' 
TABS,ioos:station:wmo:42046:1,2011-04-01T09:00:00Z,27.8903,-94.0367,2.0,43.46351074,20.83178581,-99999.0,'11111222,11111222,99999999' 
TABS,ioos:station:wmo:42046:1,2011-04-02T00:00:00Z,27.8903,-94.0367,2.0,157.1058169,20.25561651,-99999.0,'11111222,11111222,99999999' 
TABS,ioos:station:wmo:42046:1,2011-04-02T00:30:00Z,27.8903,-94.0367,2.0,153.9203452,15.83192976,-99999.0,'11111222,11111222,99999999' 
TABS,ioos:station:wmo:42046:1,2011-04-02T01:00:00Z,27.8903,-94.0367,2.0,160.1463449,8.686276533,-99999.0,'11133222,11111222,99999999' 
TABS,ioos:station:wmo:42046:1,2011-04-02T01:30:00Z,27.8903,-94.0367,2.0,158.1272269,4.482688925,-99999.0,'11133222,11111222,99999999' 
TABS,ioos:station:wmo:42046:1,2011-04-02T02:00:00Z,27.8903,-94.0367,2.0,115.2255867,2.487187166,-99999.0,'11133222,11111222,99999999' 
TABS,ioos:station:wmo:42046:1,2011-04-02T02:30:00Z,27.8903,-94.0367,2.0,334.5161431,2.370653918,-99999.0,'11133222,11111222,99999999' 
TABS,ioos:station:wmo:42046:1,2011-04-02T03:00:00Z,27.8903,-94.0367,2.0,354.9493261,3.975437083,-99999.0,'11133222,11111222,99999999' 
TABS,ioos:station:wmo:42046:1,2011-04-02T03:30:00Z,27.8903,-94.0367,2.0,12.01634445,2.545780823,-99999.0,'11133222,11111222,99999999' 
TABS,ioos:station:wmo:42046:1,2011-04-02T04:00:00Z,27.8903,-94.0367,2.0,348.631708,9.588122861,-99999.0,'11133222,11111222,99999999' 
TABS,ioos:station:wmo:42046:1,2011-04-02T04:30:00Z,27.8903,-94.0367,2.0,7.019585356,12.11077206,-99999.0,'11111222,11111222,99999999' 
TABS,ioos:station:wmo:42046:1,2011-04-02T05:00:00Z,27.8903,-94.0367,2.0,359.9172935,13.82001447,-99999.0,'11111222,11144222,99999999' 
TABS,ioos:station:wmo:42046:1,2011-04-02T05:30:00Z,27.8903,-94.0367,2.0,8.544682185,18.57618099,-99999.0,'11111222,11111222,99999999' 
TABS,ioos:station:wmo:42046:1,2011-04-02T06:00:00Z,27.8903,-94.0367,2.0,17.0505967,20.94039159,-99999.0,'11111222,11111222,99999999' 
TABS,ioos:station:wmo:42046:1,2011-04-02T06:30:00Z,27.8903,-94.0367,2.0,27.81034087,25.31379466,-99999.0,'11111222,11111222,99999999' 
TABS,ioos:station:wmo:42046:1,2011-04-02T07:00:00Z,27.8903,-94.0367,2.0,22.59221509,28.52923413,-99999.0,'11111222,11111222,99999999' 
TABS,ioos:station:wmo:42046:1,2011-04-02T07:30:00Z,27.8903,-94.0367,2.0,26.52949017,28.70217413,-99999.0,'11111222,11111222,99999999' 
TABS,ioos:station:wmo:42046:1,2011-04-02T08:00:00Z,27.8903,-94.0367,2.0,32.91795322,33.74825181,-99999.0,'11111222,11111222,99999999' 
TABS,ioos:station:wmo:42046:1,2011-04-02T08:30:00Z,27.8903,-94.0367,2.0,36.33877656,35.59152989,-99999.0,'11111222,11111222,99999999' 
TABS,ioos:station:wmo:42046:1,2011-04-02T09:00:00Z,27.8903,-94.0367,2.0,37.06879176,39.20223591,-99999.0,'11111222,11111222,99999999' 
TABS,ioos:station:wmo:42046:1,2011-04-02T09:30:00Z,27.8903,-94.0367,2.0,41.88948678,40.91691582,-99999.0,'11111222,11111222,99999999' 
TABS,ioos:station:wmo:42046:1,2011-04-02T10:00:00Z,27.8903,-94.0367,2.0,45.7766401,40.17442594,-99999.0,'11111222,11111222,99999999' 
TABS,ioos:station:wmo:42046:1,2011-04-02T10:30:00Z,27.8903,-94.0367,2.0,46.63566312,45.58453246,-99999.0,'11111222,11111222,99999999' 
TABS,ioos:station:wmo:42046:1,2011-04-02T11:00:00Z,27.8903,-94.0367,2.0,51.23427374,45.58095216,-99999.0,'11111222,11111222,99999999' 
TABS,ioos:station:wmo:42046:1,2011-04-02T11:30:00Z,27.8903,-94.0367,2.0,53.19716183,47.90803273,-99999.0,'11111222,11111222,99999999' 
TABS,ioos:station:wmo:42046:1,2011-04-02T12:00:00Z,27.8903,-94.0367,2.0,58.41878193,50.12337279,-99999.0,'11111222,11111222,99999999' 
TABS,ioos:station:wmo:42046:1,2011-04-02T12:30:00Z,27.8903,-94.0367,2.0,61.44578816,51.27710698,-99999.0,'11111222,11111222,99999999' 
TABS,ioos:station:wmo:42046:1,2011-04-02T13:00:00Z,27.8903,-94.0367,2.0,67.95280813,52.80109847,-99999.0,'11111222,11111222,99999999' 
TABS,ioos:station:wmo:42046:1,2011-04-02T13:30:00Z,27.8903,-94.0367,2.0,72.0679412,53.68805547,-99999.0,'11111222,11111222,99999999' 
TABS,ioos:station:wmo:42046:1,2011-04-02T14:00:00Z,27.8903,-94.0367,2.0,75.63286717,55.01042265,-99999.0,'11111222,11111222,99999999' 
TABS,ioos:station:wmo:42046:1,2011-04-02T14:30:00Z,27.8903,-94.0367,2.0,83.13312044,57.542778,-99999.0,'11111222,11111222,99999999' 
TABS,ioos:station:wmo:42046:1,2011-04-02T15:00:00Z,27.8903,-94.0367,2.0,90.86450564,56.33641274,-99999.0,'11111222,11111222,99999999' 
TABS,ioos:station:wmo:42046:1,2011-04-02T15:30:00Z,27.8903,-94.0367,2.0,93.43362233,54.59801187,-99999.0,'11111222,11111222,99999999' 
TABS,ioos:station:wmo:42046:1,2011-04-02T16:00:00Z,27.8903,-94.0367,2.0,98.1316577,51.46747419,-99999.0,'11111222,11111222,99999999' 
TABS,ioos:station:wmo:42046:1,2011-04-02T16:30:00Z,27.8903,-94.0367,2.0,103.4589305,51.51475614,-99999.0,'11111222,11111222,99999999' 
TABS,ioos:station:wmo:42046:1,2011-04-02T17:00:00Z,27.8903,-94.0367,2.0,106.0138885,50.5308668,-99999.0,'11111222,11111222,99999999' 
TABS,ioos:station:wmo:42046:1,2011-04-02T17:30:00Z,27.8903,-94.0367,2.0,110.8187333,46.45294931,-99999.0,'11111222,11111222,99999999' 
TABS,ioos:station:wmo:42046:1,2011-04-02T18:00:00Z,27.8903,-94.0367,2.0,116.3160759,45.29422038,-99999.0,'11111222,11111222,99999999' 
TABS,ioos:station:wmo:42046:1,2011-04-02T18:30:00Z,27.8903,-94.0367,2.0,122.6602315,40.89632991,-99999.0,'11111222,11111222,99999999' 
TABS,ioos:station:wmo:42046:1,2011-04-02T19:00:00Z,27.8903,-94.0367,2.0,125.6399401,40.99944512,-99999.0,'11111222,11111222,99999999' 
TABS,ioos:station:wmo:42046:1,2011-04-02T19:30:00Z,27.8903,-94.0367,2.0,132.759082,37.07367395,-99999.0,'11111222,11111222,99999999' 
TABS,ioos:station:wmo:42046:1,2011-04-02T20:00:00Z,27.8903,-94.0367,2.0,136.2557533,33.55320551,-99999.0,'11111222,11111222,99999999' 
TABS,ioos:station:wmo:42046:1,2011-04-02T20:30:00Z,27.8903,-94.0367,2.0,141.5236129,32.17664526,-99999.0,'11111222,11111222,99999999' 
TABS,ioos:station:wmo:42046:1,2011-04-02T21:00:00Z,27.8903,-94.0367,2.0,143.6658944,30.36332821,-99999.0,'11111222,11111222,99999999' 
TABS,ioos:station:wmo:42046:1,2011-04-02T21:30:00Z,27.8903,-94.0367,2.0,145.2069919,30.40597639,-99999.0,'11111222,11111222,99999999' 
TABS,ioos:station:wmo:42046:1,2011-04-02T22:00:00Z,27.8903,-94.0367,2.0,148.8326898,28.98344355,-99999.0,'11111222,11111222,99999999' 
TABS,ioos:station:wmo:42046:1,2011-04-02T22:30:00Z,27.8903,-94.0367,2.0,148.9176297,27.36951772,-99999.0,'11111222,11111222,99999999' 
TABS,ioos:station:wmo:42046:1,2011-04-03T00:00:00Z,27.8903,-94.0367,2.0,157.0226453,16.65109306,-99999.0,'11111222,11111222,99999999' 
TABS,ioos:station:wmo:42046:1,2011-04-03T00:30:00Z,27.8903,-94.0367,2.0,158.447541,12.38599612,-99999.0,'11111222,11111222,99999999' 
TABS,ioos:station:wmo:42046:1,2011-04-03T01:00:00Z,27.8903,-94.0367,2.0,175.2549014,5.07740091,-99999.0,'11133222,11111222,99999999' 
TABS,ioos:station:wmo:42046:1,2011-04-03T01:30:00Z,27.8903,-94.0367,2.0,189.3756383,4.358222115,-99999.0,'11133222,11111222,99999999' 
TABS,ioos:station:wmo:42046:1,2011-04-03T02:00:00Z,27.8903,-94.0367,2.0,204.6880442,3.687017765,-99999.0,'11133222,11111222,99999999' 
TABS,ioos:station:wmo:42046:1,2011-04-03T02:30:00Z,27.8903,-94.0367,2.0,214.0456473,0.893084542,-99999.0,'11133222,11111222,99999999' 
TABS,ioos:station:wmo:42046:1,2011-04-03T03:00:00Z,27.8903,-94.0367,2.0,276.6257619,5.547044258,-99999.0,'11133222,11111222,99999999' 
TABS,ioos:station:wmo:42046:1,2011-04-03T03:30:00Z,27.8903,-94.0367,2.0,290.8548302,11.01138048,-99999.0,'11111222,11111222,99999999' 
TABS,ioos:station:wmo:42046:1,2011-04-03T04:00:00Z,27.8903,-94.0367,2.0,313.182017,12.47964743,-99999.0,'11111222,11111222,99999999' 
TABS,ioos:station:wmo:42046:1,2011-04-03T04:30:00Z,27.8903,-94.0367,2.0,319.498181,12.53317597,-99999.0,'11111222,11111222,99999999' 
TABS,ioos:station:wmo:42046:1,2011-04-03T05:00:00Z,27.8903,-94.0367,2.0,327.8837045,14.74671828,-99999.0,'11111222,11111222,99999999' 
TABS,ioos:station:wmo:42046:1,2011-04-03T05:30:00Z,27.8903,-94.0367,2.0,336.981305,22.19746157,-99999.0,'11111222,11111222,99999999' 
TABS,ioos:station:wmo:42046:1,2011-04-03T06:00:00Z,27.8903,-94.0367,2.0,346.5344317,26.06659548,-99999.0,'11111222,11111222,99999999' 
TABS,ioos:station:wmo:42046:1,2011-04-03T06:30:00Z,27.8903,-94.0367,2.0,352.1033284,29.18678125,-99999.0,'11111222,11111222,99999999' 
TABS,ioos:station:wmo:42046:1,2011-04-03T07:00:00Z,27.8903,-94.0367,2.0,353.8426807,32.9098663,-99999.0,'11111222,11111222,99999999' 
TABS,ioos:station:wmo:42046:1,2011-04-03T07:30:00Z,27.8903,-94.0367,2.0,359.9198294,35.64003507,-99999.0,'11111222,11144222,99999999' 
TABS,ioos:station:wmo:42046:1,2011-04-03T08:00:00Z,27.8903,-94.0367,2.0,7.293258023,40.17502334,-99999.0,'11111222,11111222,99999999' 
TABS,ioos:station:wmo:42046:1,2011-04-03T08:30:00Z,27.8903,-94.0367,2.0,10.6046322,39.34191785,-99999.0,'11111222,11111222,99999999' 
TABS,ioos:station:wmo:42046:1,2011-04-03T09:00:00Z,27.8903,-94.0367,2.0,12.44968111,43.8818197,-99999.0,'11111222,11111222,99999999' 
TABS,ioos:station:wmo:42046:1,2011-04-03T09:30:00Z,27.8903,-94.0367,2.0,17.54000841,44.33105571,-99999.0,'11111222,11111222,99999999' 
TABS,ioos:station:wmo:42046:1,2011-04-03T10:00:00Z,27.8903,-94.0367,2.0,17.10670033,44.33123617,-99999.0,'11111222,11111222,99999999' 
TABS,ioos:station:wmo:42046:1,2011-04-03T10:30:00Z,27.8903,-94.0367,2.0,21.03767229,45.96368131,-99999.0,'11111222,11111222,99999999' 
TABS,ioos:station:wmo:42046:1,2011-04-03T11:00:00Z,27.8903,-94.0367,2.0,30.34516623,47.48558202,-99999.0,'11111222,11111222,99999999' 
TABS,ioos:station:wmo:42046:1,2011-04-03T11:30:00Z,27.8903,-94.0367,2.0,27.9649919,45.40125659,-99999.0,'11111222,11111222,99999999' 
TABS,ioos:station:wmo:42046:1,2011-04-03T12:00:00Z,27.8903,-94.0367,2.0,34.19220031,48.11654185,-99999.0,'11111222,11111222,99999999' 
TABS,ioos:station:wmo:42046:1,2011-04-03T12:30:00Z,27.8903,-94.0367,2.0,38.29871449,50.53571015,-99999.0,'11111222,11111222,99999999' 
TABS,ioos:station:wmo:42046:1,2011-04-03T13:00:00Z,27.8903,-94.0367,2.0,42.5566303,50.4201309,-99999.0,'11111222,11111222,99999999' 
TABS,ioos:station:wmo:42046:1,2011-04-03T13:30:00Z,27.8903,-94.0367,2.0,46.88486788,52.0287805,-99999.0,'11111222,11111222,99999999' 
TABS,ioos:station:wmo:42046:1,2011-04-03T14:00:00Z,27.8903,-94.0367,2.0,57.1410151,60.04706487,-99999.0,'11111222,11111222,99999999' 
TABS,ioos:station:wmo:42046:1,2011-04-03T14:30:00Z,27.8903,-94.0367,2.0,58.65801976,60.52145487,-99999.0,'11111222,11111222,99999999' 
TABS,ioos:station:wmo:42046:1,2011-04-03T15:00:00Z,27.8903,-94.0367,2.0,61.61129255,57.75558588,-99999.0,'11111222,11111222,99999999' 
TABS,ioos:station:wmo:42046:1,2011-04-03T15:30:00Z,27.8903,-94.0367,2.0,63.96408228,58.11788451,-99999.0,'11111222,11111222,99999999' 
TABS,ioos:station:wmo:42046:1,2011-04-03T16:00:00Z,27.8903,-94.0367,2.0,71.06084418,54.25729905,-99999.0,'11111222,11111222,99999999' 
TABS,ioos:station:wmo:42046:1,2011-04-03T16:30:00Z,27.8903,-94.0367,2.0,70.10772438,54.45938854,-99999.0,'11111222,11111222,99999999' 
TABS,ioos:station:wmo:42046:1,2011-04-03T17:00:00Z,27.8903,-94.0367,2.0,72.13417031,53.48940269,-99999.0,'11111222,11111222,99999999' 
TABS,ioos:station:wmo:42046:1,2011-04-03T17:30:00Z,27.8903,-94.0367,2.0,69.77209993,54.98098035,-99999.0,'11111222,11111222,99999999' 
TABS,ioos:station:wmo:42046:1,2011-04-03T18:00:00Z,27.8903,-94.0367,2.0,75.36846169,51.82053358,-99999.0,'11111222,11111222,99999999' 
TABS,ioos:station:wmo:42046:1,2011-04-03T18:30:00Z,27.8903,-94.0367,2.0,74.37936813,51.13878567,-99999.0,'11111222,11111222,99999999' 
TABS,ioos:station:wmo:42046:1,2011-04-03T19:00:00Z,27.8903,-94.0367,2.0,80.64480187,47.49166243,-99999.0,'11111222,11111222,99999999' 
TABS,ioos:station:wmo:42046:1,2011-04-03T19:30:00Z,27.8903,-94.0367,2.0,86.83457355,46.36073446,-99999.0,'11111222,11111222,99999999' 
TABS,ioos:station:wmo:42046:1,2011-04-03T20:00:00Z,27.8903,-94.0367,2.0,92.50357468,42.58064349,-99999.0,'11111222,11111222,99999999' 
TABS,ioos:station:wmo:42046:1,2011-04-03T20:30:00Z,27.8903,-94.0367,2.0,92.14191822,36.65561076,-99999.0,'11111222,11111222,99999999' 
TABS,ioos:station:wmo:42046:1,2011-04-03T21:00:00Z,27.8903,-94.0367,2.0,102.4018203,38.18093896,-99999.0,'11111222,11111222,99999999' 
TABS,ioos:station:wmo:42046:1,2011-04-04T00:00:00Z,27.8903,-94.0367,2.0,130.9898858,25.58211289,-99999.0,'11111222,11111222,99999999' 
TABS,ioos:station:wmo:42046:1,2011-04-04T00:30:00Z,27.8903,-94.0367,2.0,127.6109743,20.56372048,-99999.0,'11111222,11111222,99999999' 
TABS,ioos:station:wmo:42046:1,2011-04-04T01:00:00Z,27.8903,-94.0367,2.0,130.8855737,10.05268123,-99999.0,'11111222,11111222,99999999' 
TABS,ioos:station:wmo:42046:1,2011-04-04T01:30:00Z,27.8903,-94.0367,2.0,137.2397822,10.85531206,-99999.0,'11111222,11111222,99999999' 
TABS,ioos:station:wmo:42046:1,2011-04-04T02:00:00Z,27.8903,-94.0367,2.0,135.0636274,6.356893896,-99999.0,'11133222,11111222,99999999' 
TABS,ioos:station:wmo:42046:1,2011-04-04T02:30:00Z,27.8903,-94.0367,2.0,125.8516065,5.514870805,-99999.0,'11133222,11111222,99999999' 
TABS,ioos:station:wmo:42046:1,2011-04-04T03:00:00Z,27.8903,-94.0367,2.0,108.0988647,2.156710458,-99999.0,'11133222,11111222,99999999' 
TABS,ioos:station:wmo:42046:1,2011-04-04T03:30:00Z,27.8903,-94.0367,2.0,305.3993974,2.882949878,-99999.0,'11133222,11111222,99999999' 
TABS,ioos:station:wmo:42046:1,2011-04-04T04:00:00Z,27.8903,-94.0367,2.0,355.1281589,4.827442387,-99999.0,'11133222,11111222,99999999' 
TABS,ioos:station:wmo:42046:1,2011-04-04T04:30:00Z,27.8903,-94.0367,2.0,347.661152,4.585935019,-99999.0,'11133222,11111222,99999999' 
TABS,ioos:station:wmo:42046:1,2011-04-04T05:00:00Z,27.8903,-94.0367,2.0,348.0639673,13.6348084,-99999.0,'11111222,11111222,99999999' 
TABS,ioos:station:wmo:42046:1,2011-04-04T05:30:00Z,27.8903,-94.0367,2.0,353.2178564,18.45917929,-99999.0,'11111222,11111222,99999999' 
TABS,ioos:station:wmo:42046:1,2011-04-04T06:00:00Z,27.8903,-94.0367,2.0,355.3997944,19.82386693,-99999.0,'11111222,11111222,99999999' 
TABS,ioos:station:wmo:42046:1,2011-04-04T06:30:00Z,27.8903,-94.0367,2.0,1.654409414,23.20967255,-99999.0,'11111222,11111222,99999999' 
TABS,ioos:station:wmo:42046:1,2011-04-04T07:00:00Z,27.8903,-94.0367,2.0,4.27679289,28.42915581,-99999.0,'11111222,11111222,99999999' 
TABS,ioos:station:wmo:42046:1,2011-04-04T07:30:00Z,27.8903,-94.0367,2.0,8.584152056,31.42198275,-99999.0,'11111222,11111222,99999999' 
TABS,ioos:station:wmo:42046:1,2011-04-04T08:00:00Z,27.8903,-94.0367,2.0,9.240700739,39.91801724,-99999.0,'11111222,11111222,99999999' 
TABS,ioos:station:wmo:42046:1,2011-04-04T08:30:00Z,27.8903,-94.0367,2.0,15.86988647,40.55574189,-99999.0,'11111222,11111222,99999999' 
TABS,ioos:station:wmo:42046:1,2011-04-04T09:00:00Z,27.8903,-94.0367,2.0,20.49861083,40.75023681,-99999.0,'11111222,11111222,99999999' 
TABS,ioos:station:wmo:42046:1,2011-04-04T09:30:00Z,27.8903,-94.0367,2.0,21.81153906,42.68578803,-99999.0,'11111222,11111222,99999999' 
TABS,ioos:station:wmo:42046:1,2011-04-04T10:00:00Z,27.8903,-94.0367,2.0,32.2303739,42.67584328,-99999.0,'11111222,11111222,99999999' 
TABS,ioos:station:wmo:42046:1,2011-04-04T10:30:00Z,27.8903,-94.0367,2.0,35.48010563,45.01924588,-99999.0,'11111222,11111222,99999999' 
TABS,ioos:station:wmo:42046:1,2011-04-04T11:00:00Z,27.8903,-94.0367,2.0,35.47677793,44.74722896,-99999.0,'11111222,11111222,99999999' 
TABS,ioos:station:wmo:42046:1,2011-04-04T11:30:00Z,27.8903,-94.0367,2.0,41.50280455,45.09132178,-99999.0,'11111222,11111222,99999999' 
TABS,ioos:station:wmo:42046:1,2011-04-04T12:00:00Z,27.8903,-94.0367,2.0,44.89758044,51.3713899,-99999.0,'11111222,11111222,99999999' 
TABS,ioos:station:wmo:42046:1,2011-04-04T12:30:00Z,27.8903,-94.0367,2.0,45.85192826,48.03907264,-99999.0,'11111222,11111222,99999999' 
TABS,ioos:station:wmo:42046:1,2011-04-04T13:00:00Z,27.8903,-94.0367,2.0,49.39526782,52.77809584,-99999.0,'11111222,11111222,99999999' 
TABS,ioos:station:wmo:42046:1,2011-04-04T13:30:00Z,27.8903,-94.0367,2.0,54.65680546,45.5681742,-99999.0,'11111222,11111222,99999999' 
TABS,ioos:station:wmo:42046:1,2011-04-04T14:00:00Z,27.8903,-94.0367,2.0,51.57654424,50.75065714,-99999.0,'11111222,11111222,99999999' 
TABS,ioos:station:wmo:42046:1,2011-04-04T14:30:00Z,27.8903,-94.0367,2.0,52.46055192,46.88920238,-99999.0,'11111222,11111222,99999999' 
TABS,ioos:station:wmo:42046:1,2011-04-04T15:00:00Z,27.8903,-94.0367,2.0,51.82362508,46.8381778,-99999.0,'11111222,11111222,99999999' 
TABS,ioos:station:wmo:42046:1,2011-04-04T15:30:00Z,27.8903,-94.0367,2.0,53.84562668,47.73172111,-99999.0,'11111222,11111222,99999999' 
TABS,ioos:station:wmo:42046:1,2011-04-04T16:00:00Z,27.8903,-94.0367,2.0,54.75417539,48.62353031,-99999.0,'11111222,11111222,99999999' 
TABS,ioos:station:wmo:42046:1,2011-04-04T16:30:00Z,27.8903,-94.0367,2.0,54.89391459,52.63493612,-99999.0,'11111222,11111222,99999999' 
TABS,ioos:station:wmo:42046:1,2011-04-04T17:00:00Z,27.8903,-94.0367,2.0,63.57199967,52.37333386,-99999.0,'11111222,11111222,99999999' 
TABS,ioos:station:wmo:42046:1,2011-04-04T17:30:00Z,27.8903,-94.0367,2.0,68.50053919,50.39655742,-99999.0,'11111222,11111222,99999999' 
TABS,ioos:station:wmo:42046:1,2011-04-04T18:00:00Z,27.8903,-94.0367,2.0,69.11805137,51.84538552,-99999.0,'11111222,11111222,99999999' 
TABS,ioos:station:wmo:42046:1,2011-04-04T18:30:00Z,27.8903,-94.0367,2.0,76.22285483,49.8852373,-99999.0,'11111222,11111222,99999999' 
TABS,ioos:station:wmo:42046:1,2011-04-04T19:00:00Z,27.8903,-94.0367,2.0,80.14855945,49.62169082,-99999.0,'11111222,11111222,99999999' 
TABS,ioos:station:wmo:42046:1,2011-04-04T19:30:00Z,27.8903,-94.0367,2.0,87.28513327,50.03615992,-99999.0,'11111222,11111222,99999999' 
TABS,ioos:station:wmo:42046:1,2011-04-04T20:00:00Z,27.8903,-94.0367,2.0,96.63417635,47.34703581,-99999.0,'11111222,11111222,99999999' 
TABS,ioos:station:wmo:42046:1,2011-04-04T20:30:00Z,27.8903,-94.0367,2.0,99.13730463,45.21373685,-99999.0,'11111222,11111222,99999999' 
TABS,ioos:station:wmo:42046:1,2011-04-04T21:00:00Z,27.8903,-94.0367,2.0,105.2629239,44.86239517,-99999.0,'11111222,11111222,99999999' 
TABS,ioos:station:wmo:42046:1,2011-04-04T21:30:00Z,27.8903,-94.0367,2.0,110.6776134,46.86923298,-99999.0,'11111222,11111222,99999999' 
TABS,ioos:station:wmo:42046:1,2011-04-04T22:00:00Z,27.8903,-94.0367,2.0,121.6206362,48.31261222,-99999.0,'11111222,11111222,99999999' 
TABS,ioos:station:wmo:42046:1,2011-04-04T22:30:00Z,27.8903,-94.0367,2.0,137.0114838,48.74969949,-99999.0,'11111222,11111222,99999999' 
TABS,ioos:station:wmo:42046:1,2011-04-04T23:00:00Z,27.8903,-94.0367,2.0,138.3388164,58.76132742,-99999.0,'11111222,11111222,99999999' 
TABS,ioos:station:wmo:42046:1,2011-04-05T00:00:00Z,27.8903,-94.0367,2.0,154.9522678,59.78211856,-99999.0,'11111222,11111222,99999999' 
TABS,ioos:station:wmo:42046:1,2011-04-05T00:30:00Z,27.8903,-94.0367,2.0,163.165682,52.0714125,-99999.0,'11111222,11111222,99999999' 
TABS,ioos:station:wmo:42046:1,2011-04-05T01:00:00Z,27.8903,-94.0367,2.0,166.71846,44.1816987,-99999.0,'11111222,11111222,99999999' 
TABS,ioos:station:wmo:42046:1,2011-04-05T01:30:00Z,27.8903,-94.0367,2.0,174.7945291,47.83727835,-99999.0,'11111222,11111222,99999999' 
TABS,ioos:station:wmo:42046:1,2011-04-05T02:00:00Z,27.8903,-94.0367,2.0,176.9962136,45.8029213,-99999.0,'11111222,11111222,99999999' 
TABS,ioos:station:wmo:42046:1,2011-04-05T02:30:00Z,27.8903,-94.0367,2.0,185.2851652,42.7718564,-99999.0,'11111222,11111222,99999999' 
TABS,ioos:station:wmo:42046:1,2011-04-05T03:00:00Z,27.8903,-94.0367,2.0,187.1247892,40.06942101,-99999.0,'11111222,11111222,99999999' 
TABS,ioos:station:wmo:42046:1,2011-04-05T03:30:00Z,27.8903,-94.0367,2.0,193.1480059,40.53257085,-99999.0,'11111222,11111222,99999999' 
TABS,ioos:station:wmo:42046:1,2011-04-05T04:00:00Z,27.8903,-94.0367,2.0,195.7224378,44.17274386,-99999.0,'11111222,11111222,99999999' 
TABS,ioos:station:wmo:42046:1,2011-04-05T04:30:00Z,27.8903,-94.0367,2.0,193.9193086,40.48898122,-99999.0,'11111222,11111222,99999999' 
TABS,ioos:station:wmo:42046:1,2011-04-05T05:00:00Z,27.8903,-94.0367,2.0,202.615824,35.00153854,-99999.0,'11111222,11111222,99999999' 
TABS,ioos:station:wmo:42046:1,2011-04-05T05:30:00Z,27.8903,-94.0367,2.0,209.7797532,34.36879108,-99999.0,'11111222,11111222,99999999' 
TABS,ioos:station:wmo:42046:1,2011-04-05T06:00:00Z,27.8903,-94.0367,2.0,213.2152572,38.84698701,-99999.0,'11111222,11111222,99999999' 
TABS,ioos:station:wmo:42046:1,2011-04-05T06:30:00Z,27.8903,-94.0367,2.0,220.9037488,36.33202031,-99999.0,'11111222,11111222,99999999' 
TABS,ioos:station:wmo:42046:1,2011-04-05T07:00:00Z,27.8903,-94.0367,2.0,218.247618,31.93523603,-99999.0,'11111222,11111222,99999999' 
TABS,ioos:station:wmo:42046:1,2011-04-05T07:30:00Z,27.8903,-94.0367,2.0,229.4273396,30.04270294,-99999.0,'11111222,11111222,99999999' 
TABS,ioos:station:wmo:42046:1,2011-04-05T08:00:00Z,27.8903,-94.0367,2.0,240.7832538,32.67710054,-99999.0,'11111222,11111222,99999999' 
TABS,ioos:station:wmo:42046:1,2011-04-05T08:30:00Z,27.8903,-94.0367,2.0,242.6098622,28.5843821,-99999.0,'11111222,11111222,99999999' 
TABS,ioos:station:wmo:42046:1,2011-04-05T09:00:00Z,27.8903,-94.0367,2.0,244.6671406,23.90909869,-99999.0,'11111222,11111222,99999999' 
TABS,ioos:station:wmo:42046:1,2011-04-05T09:30:00Z,27.8903,-94.0367,2.0,250.4770148,22.32337788,-99999.0,'11111222,11111222,99999999' 
TABS,ioos:station:wmo:42046:1,2011-04-05T10:00:00Z,27.8903,-94.0367,2.0,255.5838598,25.2654903,-99999.0,'11111222,11111222,99999999' 
TABS,ioos:station:wmo:42046:1,2011-04-05T10:30:00Z,27.8903,-94.0367,2.0,266.7978418,14.50263769,-99999.0,'11111222,11111222,99999999' 